Regional Weather Roundup
Issued by NWS Northern Indiana

Home | Current Version | Previous Version | Graphics & Text | Print | Product List | Glossary On
Versions: 1 2 3 4 5 6 7 8 9 10 11 12 13 14 15 16 17 18 19 20 21 22 23 24 25 26 27 28 29 30 31 32 33 34 35 36 37 38 39 40 41 42 43 44 45 46 47 48 49 50
828
ASUS43 KIWX 240701
RWRIWX

KIWX WEATHER ROUNDUP
NATIONAL WEATHER SERVICE NORTHERN INDIANA
300 AM EDT FRI MAR 24 2017

NOTE: "FAIR" INDICATES FEW OR NO CLOUDS BELOW 12,000 FEET WITH NO
SIGNIFICANT WEATHER AND/OR OBSTRUCTIONS TO VISIBILITY.

* THESE STATIONS ARE NOT UNDER NWS QUALITY CONTROL. THEY ALSO MAY NOT
  REPORT WEATHER SUCH AS PRECIPITATION OR FOG.

INZ001>027-240800-
NORTHERN INDIANA

CITY           SKY/WX    TMP DP  RH WIND       PRES   REMARKS
SOUTH BEND     PTCLDY    47  35  63 S8        30.03F
GOSHEN         CLOUDY    50  35  56 S10       30.05F
MONTICELLO*    CLEAR     51  36  55 S7        30.01S
ANGOLA*        MOCLDY    43  32  65 SE6       30.07F
FORT WAYNE     CLOUDY    48  37  65 S9        30.08S
PERU/GRISSOM   CLEAR     50  38  63 VRB6      30.02S

$$
INZ028>050-240800-
CENTRAL INDIANA

CITY           SKY/WX    TMP DP  RH WIND       PRES   REMARKS
LAFAYETTE      CLEAR     50  39  66 S6        30.01S
KOKOMO*        CLEAR     49  37  63 S15       30.05F
MUNCIE*        CLOUDY    56  37  49 S16G23    30.06F
INDIANAPOLIS   CLEAR     52  37  56 S15       30.06F

$$
MIZ043>046-050>051-056>058-064>065-071>073-077>080-240800-
SOUTHWEST LOWER MICHIGAN

CITY           SKY/WX    TMP DP  RH WIND       PRES   REMARKS
BATTLE CREEK   CLOUDY    42  37  82 S14       30.01F
BENTON HARBOR  CLOUDY    44  35  70 S9        29.99F
COLDWATER*     CLOUDY    43  36  75 S7        30.04F
HILLSDALE*     CLOUDY    37  34  87 SE8       30.06F
HOLLAND        PTCLDY    43  35  73 S10       29.98F
GRAND RAPIDS   PTCLDY    44  35  70 S16       29.98F
KALAMAZOO      MOCLDY    43  35  73 S13       30.02F
STURGIS*       CLOUDY    43  37  77 S10       30.04F
THREE RIVERS*  CLOUDY    45  36  70 S8        30.04F

$$
OHZ001>008-015>018-024>025-240800-
NORTHWEST OHIO

CITY           SKY/WX    TMP DP  RH WIND       PRES   REMARKS
DEFIANCE       CLOUDY    41  34  76 SE3       30.10F
FINDLAY        CLOUDY    46  35  65 SE12      30.10F
TOLEDO EXPRESS CLOUDY    41  37  86 SE7       30.10F
TOLEDO METCALF RAIN      42  40  92 SE10      30.12F FOG
LIMA           PTCLDY    48  37  65 S10       30.11F

$$
AND FOR LAKE MICHIGAN COASTAL AND OPEN LAKE BUOY OBSERVATIONS

STATION/POSITION TEMP    WIND        PRES    VSBY  WAVE
                 AIR SEA DIR/SP/G                  HT/PER
                 (F)     (DEG/KT/KT) (MB)    (MI)  (FT/S)
CALUMET HARBOR    48     160/  5/  8 1014.8F
MICHIGAN CITY     49     140/  8/ 10   N/A
BURNS HARBOR      49     180/  9/ 15 1016.3F

$$
&&




USA.gov is the U.S. government's official web portal to all federal, state and local government web resources and services.